OPS 4682 DEB, 38409

Orbit data source: Space-Track

OPS 4682 DEB, 38409 is space debris in LEO originally from a launch on Sat, 03 Apr 1965 UTC launched from the Air Force Western Test Range (AFWTR). Debris objects in space refer to the collection of defunct objects orbiting the Earth. Examples of debris include non-operational satellites, rocket bodies, and fragments generated from explosions, collisions, or faulty payload assembly.

Loading next visibility...
Identifier
38409, 1965-027DN
Orbit
LEO
Country
Flag of USUS
Related business
Manufacturer
Unknown
Mission
Spacecraft
Bus & Motor
Unknown
Mass
Unknown
Launch date (UTC)
1965-04-03 (61 years ago)
Launch vehicle
Unknown
Launch site
Air Force Western Test Range (AFWTR)
Object type
Payload
Rocket body
Debris
Shape & HBR
Unknown shape, 0.1 m
Radar Cross Section
Small (<0.1 m²)

Expand to show TLE details & history
Last TLE update: 4 days ago

TLE from 4 days ago
0 OPS 4682 DEB
1 38409U 65027DN  25304.67135233  .00001168  00000-0  39015-2 0  9994
2 38409  90.2870  21.0470 0036131 232.8450 126.9370 12.99034808158549
Epoch: 2025-10-31T16:06Z
TLE epoch observation values (Epoch: 2025-10-31T16:06:44.841Z)
Latitude
-0.00001°
Longitude
99.14772°
Altitude
1,285.416 km
Speed
7.205 km/s
True Right ascension
01h 24m 11s
True Declination
0° 00' 00"
Sunlit
Object was in full shadow at epoch
Visualization orbit readout
Latitude
Unknown
Longitude
Unknown
Altitude
Unknown
Speed
Unknown
Apparent Right ascension
Unknown
Apparent Declination
Unknown
Sunlit
N/A
Visualization observer readout
Local Sidereal Time
06:45:32
Azimuth
Unknown
Elevation
Unknown
Doppler factor
Unknown
Orbital elements
Apogee altitude
1,290.607 km
Perigee altitude
1,235.391 km
Semi-major axis
7,641.136 km
Eccentricity
0.00361
Inclination
90.287°
RAAN
21.047°
Arg. of periapsis
232.845°
True anomaly
127.26704°
Mean anomaly
126.937°
Eccentric anomaly
127.10211°
Mean motion
3.24942 °/min
Orbital period
110.79 mins
BSTAR
0.0039015
Loading maneuver chart data...
Computing Atmospheric mass density...
Loading historical data...
Loading historical data...
Loading historical data...
Loading historical data...
Loading historical data...
Loading historical data...
Loading historical data...

Documentation

Showing up to 5 results
|